X  Close Possible drizzle starting this afternoon, continuing until tonight.
Conditions Temperature Feels Precipitation Wind Wind Direction UV index Pressure
09:00 rain Possible Drizzle 16° 0.21 mm 31% 12-18 mph West West uv-2 1015,1
10:00 rain Drizzle 16° 0.14 mm 77% 11-17 mph West West uv-3 1015,4
11:00 cloudy Overcast 17° 0.14 mm 23% 11-16 mph WSW WSW uv-4 1015,5
12:00 cloudy Overcast 17° 0.14 mm 20% 11-15 mph WNW WNW uv-4 1015,6
13:00 cloudy Overcast 18° 0.12 mm 16% 12-15 mph West West uv-4 1015,6
14:00 cloudy Overcast 18° 0.07 mm 12% 13-16 mph WSW WSW uv-4 1015,7
15:00 cloudy Overcast 19° 0.03 mm 11% 14-18 mph West West uv-4 1015,9
16:00 cloudy Overcast 19° 0.03 mm 12% 15-21 mph West West uv-3 1016,0
17:00 cloudy Overcast 19° 0.05 mm 23% 15-22 mph WNW WNW uv-3 1015,5
18:00 rain Possible Drizzle 18° 0.12 mm 37% 15-24 mph SW SW uv-2 1015,2
19:00 rain Possible Drizzle 18° 0.17 mm 48% 14-25 mph WSW WSW uv-1 1015,0
20:00 rain Possible Drizzle 17° 0.14 mm 46% 14-25 mph WSW WSW - 1014,8
21:00 rain Possible Drizzle 17° 0.08 mm 35% 13-23 mph WSW WSW - 1014,7
22:00 cloudy Overcast 17° 0.05 mm 22% 13-22 mph WSW WSW - 1014,5
23:00 cloudy Overcast 17° 0.04 mm 11% 13-23 mph WSW WSW - 1014,4
00:00 cloudy Overcast 16° 0.03 mm 10% 13-23 mph WSW WSW - 1014,2
01:00 cloudy Overcast 16° 0.03 mm 9% 14-24 mph SW SW - 1014,0
02:00 cloudy Overcast 16° 0.05 mm 12% 14-25 mph SW SW - 1013,6
03:00 cloudy Overcast 16° 0.13 mm 22% 15-25 mph SW SW - 1013,1
04:00 rain Possible Drizzle 15° 0.22 mm 28% 15-26 mph SW SW - 1012,7
05:00 rain Possible Light Rain 16° 0.24 mm 28% 15-27 mph SW SW - 1012,4
06:00 rain Possible Light Rain 16° 0.27 mm 30% 14-28 mph SW SW - 1012,3
07:00 rain Possible Light Rain 16° 0.3 mm 30% 14-28 mph WSW WSW - 1012,2
08:00 rain Possible Drizzle 16° 0.21 mm 26% 14-28 mph WSW WSW uv-1 1012,3
09:00 cloudy Overcast 17° 0.1 mm 13% 14-27 mph WSW WSW uv-2 1012,4
10:00 cloudy Overcast 18° 0.06 mm 8% 14-26 mph WSW WSW uv-3 1012,5
11:00 cloudy Overcast 19° 0.04 mm 6% 14-25 mph SW SW uv-3 1012,6
12:00 cloudy Overcast 19° 0.03 mm 4% 14-23 mph WNW WNW uv-4 1012,9
13:00 cloudy Overcast 20° 0.02 mm 2% 13-22 mph West West uv-4 1013,0
14:00 cloudy Overcast 19° 0.02 mm 4% 13-22 mph WSW WSW uv-4 1013,1
15:00 cloudy Overcast 19° 0.03 mm 6% 14-22 mph West West uv-4 1013,1
16:00 cloudy Overcast 18° 0.04 mm 8% 13-22 mph West West uv-3 1012,9
17:00 cloudy Overcast 18° 0.07 mm 14% 12-19 mph WSW WSW uv-2 1012,7
18:00 cloudy Overcast 17° 0.14 mm 18% 11-17 mph WNW WNW uv-2 1012,4
19:00 cloudy Overcast 17° 0.2 mm 18% 10-15 mph West West uv-1 1012,4
20:00 cloudy Overcast 17° 0.22 mm 19% 10-14 mph WSW WSW - 1012,6
21:00 cloudy Overcast 16° 0.23 mm 14% 10-14 mph NNW NNW - 1013,1
22:00 cloudy Overcast 16° 0.24 mm 12% 10-15 mph NNW NNW - 1013,6
23:00 cloudy Overcast 15° 0.22 mm 11% 11-16 mph North North - 1013,9
00:00 cloudy Overcast 15° 0.19 mm 8% 11-17 mph North North - 1014,1
01:00 cloudy Overcast 14° 0.14 mm 7% 11-17 mph NNE NNE - 1014,4
02:00 cloudy Overcast 14° 0.07 mm 6% 11-17 mph NNE NNE - 1014,8
03:00 partly-cloudy-night Mostly Cloudy 13° 0.02 mm 3% 10-16 mph North North - 1015,2
04:00 partly-cloudy-night Partly Cloudy 13° 0.01 mm 1% 9-14 mph North North - 1015,7
05:00 partly-cloudy-night Partly Cloudy 13° 0.01 mm 1% 8-12 mph North North - 1016,2
06:00 partly-cloudy-day Partly Cloudy 13° 0.01 mm 1% 7-9 mph NNW NNW - 1016,6
07:00 partly-cloudy-day Partly Cloudy 13° 0.01 mm 1% 7-8 mph NNW NNW - 1017,1
08:00 partly-cloudy-day Partly Cloudy 14° 0.01 mm 1% 8-10 mph NNW NNW uv-1 1017,6
09:00 partly-cloudy-day Partly Cloudy 15° 0.01 mm 2% 10-14 mph NNW NNW uv-2 1018,1